Date_Time,Julian_Date,Latitude,Longitude,Instrument_Depth,U,V,Speed,Direction
(yyyy-mm-dd hh:mn:ss UTC),(JD),(+ deg. North),(+ deg. East),(m),(cm/s),(cm/s),(cm/s),(deg True)
1983-09-23 23:30:00 UTC,2445601.479167,29.6633,-93.3933,0082,-0.72,-0.69,1.0000,226.0000
1983-09-24 00:00:00 UTC,2445601.500000,29.6633,-93.3933,0082,-0.03,-2.00,2.0000,181.0000
1983-09-24 00:30:00 UTC,2445601.520833,29.6633,-93.3933,0082,0.31,-2.98,3.0000,174.0000
1983-09-24 01:00:00 UTC,2445601.541667,29.6633,-93.3933,0082,0.35,-3.98,4.0000,175.0000
1983-09-24 01:30:00 UTC,2445601.562500,29.6633,-93.3933,0082,-0.16,-3.00,3.0000,183.0000
1983-09-24 02:00:00 UTC,2445601.583333,29.6633,-93.3933,0082,-0.41,-0.91,1.0000,204.0000
1983-09-24 02:30:00 UTC,2445601.604167,29.6633,-93.3933,0082,-0.00,0.00,0.0000,287.0000
1983-09-24 03:00:00 UTC,2445601.625000,29.6633,-93.3933,0082,-0.93,0.37,1.0000,292.0000
1983-09-24 03:30:00 UTC,2445601.645833,29.6633,-93.3933,0082,-2.70,1.32,3.0000,296.0000
1983-09-24 04:00:00 UTC,2445601.666667,29.6633,-93.3933,0082,-3.11,2.52,4.0000,309.0000
1983-09-24 04:30:00 UTC,2445601.687500,29.6633,-93.3933,0082,-3.01,3.99,5.0000,323.0000
1983-09-24 05:00:00 UTC,2445601.708333,29.6633,-93.3933,0082,-2.50,4.33,5.0000,330.0000
1983-09-24 05:30:00 UTC,2445601.729167,29.6633,-93.3933,0082,-2.50,4.33,5.0000,330.0000
1983-09-24 06:00:00 UTC,2445601.750000,29.6633,-93.3933,0082,-3.09,5.14,6.0000,329.0000
1983-09-24 06:30:00 UTC,2445601.770833,29.6633,-93.3933,0082,-3.86,4.60,6.0000,320.0000
1983-09-24 07:00:00 UTC,2445601.791667,29.6633,-93.3933,0082,-4.97,3.36,6.0000,304.0000
1983-09-24 07:30:00 UTC,2445601.812500,29.6633,-93.3933,0082,-5.20,3.00,6.0000,300.0000
1983-09-24 08:00:00 UTC,2445601.833333,29.6633,-93.3933,0082,-4.73,3.69,6.0000,308.0000
1983-09-24 08:30:00 UTC,2445601.854167,29.6633,-93.3933,0082,-5.36,4.50,7.0000,310.0000
1983-09-24 09:00:00 UTC,2445601.875000,29.6633,-93.3933,0082,-5.14,3.09,6.0000,301.0000
1983-09-24 09:30:00 UTC,2445601.895833,29.6633,-93.3933,0082,-4.78,1.46,5.0000,287.0000
1983-09-24 10:00:00 UTC,2445601.916667,29.6633,-93.3933,0082,-4.85,1.21,5.0000,284.0000
1983-09-24 10:30:00 UTC,2445601.937500,29.6633,-93.3933,0082,-2.85,0.93,3.0000,288.0000
1983-09-24 11:00:00 UTC,2445601.958333,29.6633,-93.3933,0082,-1.90,0.62,2.0000,288.0000
1983-09-24 11:30:00 UTC,2445601.979167,29.6633,-93.3933,0082,-1.97,0.35,2.0000,280.0000
1983-09-24 12:00:00 UTC,2445602.000000,29.6633,-93.3933,0082,-4.00,-0.00,4.0000,270.0000
1983-09-24 12:30:00 UTC,2445602.020833,29.6633,-93.3933,0082,-3.97,-0.49,4.0000,263.0000
1983-09-24 13:00:00 UTC,2445602.041667,29.6633,-93.3933,0082,-2.97,-0.42,3.0000,262.0000
1983-09-24 13:30:00 UTC,2445602.062500,29.6633,-93.3933,0082,-0.99,-0.12,1.0000,263.0000
1983-09-24 14:00:00 UTC,2445602.083333,29.6633,-93.3933,0082,-0.00,-0.00,0.0000,251.0000
1983-09-24 14:30:00 UTC,2445602.104167,29.6633,-93.3933,0082,-0.00,-0.00,0.0000,261.0000
1983-09-24 15:00:00 UTC,2445602.125000,29.6633,-93.3933,0082,-1.75,0.97,2.0000,299.0000
1983-09-24 15:30:00 UTC,2445602.145833,29.6633,-93.3933,0082,-2.93,2.73,4.0000,313.0000
1983-09-24 16:00:00 UTC,2445602.166667,29.6633,-93.3933,0082,-3.61,4.79,6.0000,323.0000
1983-09-24 16:30:00 UTC,2445602.187500,29.6633,-93.3933,0082,-2.85,6.39,7.0000,336.0000
1983-09-24 17:00:00 UTC,2445602.208333,29.6633,-93.3933,0082,-1.69,6.79,7.0000,346.0000
1983-09-24 17:30:00 UTC,2445602.229167,29.6633,-93.3933,0082,-1.14,5.89,6.0000,349.0000
1983-09-24 18:00:00 UTC,2445602.250000,29.6633,-93.3933,0082,-0.28,3.99,4.0000,356.0000
1983-09-24 18:30:00 UTC,2445602.270833,29.6633,-93.3933,0082,1.04,4.89,5.0000,12.0000
1983-09-24 19:00:00 UTC,2445602.291667,29.6633,-93.3933,0082,2.34,7.65,8.0000,17.0000
1983-09-24 19:30:00 UTC,2445602.312500,29.6633,-93.3933,0082,2.66,10.67,11.0000,14.0000
1983-09-24 20:00:00 UTC,2445602.333333,29.6633,-93.3933,0082,1.91,10.83,11.0000,10.0000
1983-09-24 20:30:00 UTC,2445602.354167,29.6633,-93.3933,0082,1.41,8.89,9.0000,9.0000
1983-09-24 21:00:00 UTC,2445602.375000,29.6633,-93.3933,0082,0.84,5.94,6.0000,8.0000
1983-09-24 21:30:00 UTC,2445602.395833,29.6633,-93.3933,0082,0.47,2.96,3.0000,9.0000
1983-09-24 22:00:00 UTC,2445602.416667,29.6633,-93.3933,0082,0.12,0.99,1.0000,7.0000
1983-09-24 22:30:00 UTC,2445602.437500,29.6633,-93.3933,0082,0.00,0.00,0.0000,21.0000
1983-09-24 23:00:00 UTC,2445602.458333,29.6633,-93.3933,0082,0.94,0.34,1.0000,70.0000
1983-09-24 23:30:00 UTC,2445602.479167,29.6633,-93.3933,0082,1.95,-0.45,2.0000,103.0000
1983-09-25 00:00:00 UTC,2445602.500000,29.6633,-93.3933,0082,4.29,-2.58,5.0000,121.0000
1983-09-25 00:30:00 UTC,2445602.520833,29.6633,-93.3933,0082,6.55,-4.59,8.0000,125.0000
1983-09-25 01:00:00 UTC,2445602.541667,29.6633,-93.3933,0082,7.55,-4.90,9.0000,123.0000
1983-09-25 01:30:00 UTC,2445602.562500,29.6633,-93.3933,0082,5.09,-3.18,6.0000,122.0000
1983-09-25 02:00:00 UTC,2445602.583333,29.6633,-93.3933,0082,0.91,-0.41,1.0000,114.0000
1983-09-25 02:30:00 UTC,2445602.604167,29.6633,-93.3933,0082,-0.60,0.80,1.0000,323.0000
1983-09-25 03:00:00 UTC,2445602.625000,29.6633,-93.3933,0082,-1.93,2.30,3.0000,320.0000
1983-09-25 03:30:00 UTC,2445602.645833,29.6633,-93.3933,0082,-2.80,4.15,5.0000,326.0000
1983-09-25 04:00:00 UTC,2445602.666667,29.6633,-93.3933,0082,-3.71,5.94,7.0000,328.0000
1983-09-25 04:30:00 UTC,2445602.687500,29.6633,-93.3933,0082,-5.66,6.99,9.0000,321.0000
1983-09-25 05:00:00 UTC,2445602.708333,29.6633,-93.3933,0082,-7.66,6.43,10.0000,310.0000
1983-09-25 05:30:00 UTC,2445602.729167,29.6633,-93.3933,0082,-9.62,5.33,11.0000,299.0000
1983-09-25 06:00:00 UTC,2445602.750000,29.6633,-93.3933,0082,-10.13,4.30,11.0000,293.0000
1983-09-25 06:30:00 UTC,2445602.770833,29.6633,-93.3933,0082,-8.99,4.38,10.0000,296.0000
1983-09-25 07:00:00 UTC,2445602.791667,29.6633,-93.3933,0082,-8.75,4.85,10.0000,299.0000
1983-09-25 07:30:00 UTC,2445602.812500,29.6633,-93.3933,0082,-9.80,4.99,11.0000,297.0000
1983-09-25 08:00:00 UTC,2445602.833333,29.6633,-93.3933,0082,-10.05,4.47,11.0000,294.0000
1983-09-25 08:30:00 UTC,2445602.854167,29.6633,-93.3933,0082,-9.71,5.16,11.0000,298.0000
1983-09-25 09:00:00 UTC,2445602.875000,29.6633,-93.3933,0082,-11.14,6.70,13.0000,301.0000
1983-09-25 09:30:00 UTC,2445602.895833,29.6633,-93.3933,0082,-11.26,6.50,13.0000,300.0000
1983-09-25 10:00:00 UTC,2445602.916667,29.6633,-93.3933,0082,-9.71,5.16,11.0000,298.0000
1983-09-25 10:30:00 UTC,2445602.937500,29.6633,-93.3933,0082,-9.89,4.82,11.0000,296.0000
1983-09-25 11:00:00 UTC,2445602.958333,29.6633,-93.3933,0082,-10.20,4.12,11.0000,292.0000
1983-09-25 11:30:00 UTC,2445602.979167,29.6633,-93.3933,0082,-10.40,3.58,11.0000,289.0000
1983-09-25 12:00:00 UTC,2445603.000000,29.6633,-93.3933,0082,-10.46,3.40,11.0000,288.0000
1983-09-25 12:30:00 UTC,2445603.020833,29.6633,-93.3933,0082,-10.05,4.47,11.0000,294.0000
1983-09-25 13:00:00 UTC,2445603.041667,29.6633,-93.3933,0082,-9.43,5.67,11.0000,301.0000
1983-09-25 13:30:00 UTC,2445603.062500,29.6633,-93.3933,0082,-8.48,5.30,10.0000,302.0000
1983-09-25 14:00:00 UTC,2445603.083333,29.6633,-93.3933,0082,-8.29,5.59,10.0000,304.0000
1983-09-25 14:30:00 UTC,2445603.104167,29.6633,-93.3933,0082,-8.90,6.47,11.0000,306.0000
1983-09-25 15:00:00 UTC,2445603.125000,29.6633,-93.3933,0082,-12.05,4.87,13.0000,292.0000
1983-09-25 15:30:00 UTC,2445603.145833,29.6633,-93.3933,0082,-14.00,0.24,14.0000,271.0000
1983-09-25 16:00:00 UTC,2445603.166667,29.6633,-93.3933,0082,-13.92,-1.46,14.0000,264.0000
1983-09-25 16:30:00 UTC,2445603.187500,29.6633,-93.3933,0082,-11.91,1.46,12.0000,277.0000
1983-09-25 17:00:00 UTC,2445603.208333,29.6633,-93.3933,0082,-10.38,7.82,13.0000,307.0000
1983-09-25 17:30:00 UTC,2445603.229167,29.6633,-93.3933,0082,-8.95,13.26,16.0000,326.0000
1983-09-25 18:00:00 UTC,2445603.250000,29.6633,-93.3933,0082,-6.81,13.37,15.0000,333.0000
1983-09-25 18:30:00 UTC,2445603.270833,29.6633,-93.3933,0082,-5.45,10.69,12.0000,333.0000
1983-09-25 19:00:00 UTC,2445603.291667,29.6633,-93.3933,0082,-6.31,9.01,11.0000,325.0000
1983-09-25 19:30:00 UTC,2445603.312500,29.6633,-93.3933,0082,-6.29,7.77,10.0000,321.0000
1983-09-25 20:00:00 UTC,2445603.333333,29.6633,-93.3933,0082,-5.42,7.19,9.0000,323.0000
1983-09-25 20:30:00 UTC,2445603.354167,29.6633,-93.3933,0082,-5.16,7.37,9.0000,325.0000
1983-09-25 21:00:00 UTC,2445603.375000,29.6633,-93.3933,0082,-6.31,9.01,11.0000,325.0000
1983-09-25 21:30:00 UTC,2445603.395833,29.6633,-93.3933,0082,-5.59,8.29,10.0000,326.0000
1983-09-25 22:00:00 UTC,2445603.416667,29.6633,-93.3933,0082,-5.45,8.39,10.0000,327.0000
1983-09-25 22:30:00 UTC,2445603.437500,29.6633,-93.3933,0082,-6.36,10.18,12.0000,328.0000
1983-09-25 23:00:00 UTC,2445603.458333,29.6633,-93.3933,0082,-8.03,11.47,14.0000,325.0000
1983-09-25 23:30:00 UTC,2445603.479167,29.6633,-93.3933,0082,-8.36,9.96,13.0000,320.0000
1983-09-26 00:00:00 UTC,2445603.500000,29.6633,-93.3933,0082,-7.71,9.19,12.0000,320.0000
1983-09-26 00:30:00 UTC,2445603.520833,29.6633,-93.3933,0082,-6.47,8.90,11.0000,324.0000
1983-09-26 01:00:00 UTC,2445603.541667,29.6633,-93.3933,0082,-5.59,8.29,10.0000,326.0000
1983-09-26 01:30:00 UTC,2445603.562500,29.6633,-93.3933,0082,-5.45,8.39,10.0000,327.0000
1983-09-26 02:00:00 UTC,2445603.583333,29.6633,-93.3933,0082,-4.90,7.55,9.0000,327.0000
1983-09-26 02:30:00 UTC,2445603.604167,29.6633,-93.3933,0082,-4.24,6.78,8.0000,328.0000
1983-09-26 03:00:00 UTC,2445603.625000,29.6633,-93.3933,0082,-2.96,6.34,7.0000,335.0000
1983-09-26 03:30:00 UTC,2445603.645833,29.6633,-93.3933,0082,-1.34,6.87,7.0000,349.0000
1983-09-26 04:00:00 UTC,2445603.666667,29.6633,-93.3933,0082,-0.28,8.00,8.0000,358.0000
1983-09-26 04:30:00 UTC,2445603.687500,29.6633,-93.3933,0082,0.00,9.00,9.0000,0.0000
1983-09-26 05:00:00 UTC,2445603.708333,29.6633,-93.3933,0082,-0.58,10.98,11.0000,357.0000
1983-09-26 05:30:00 UTC,2445603.729167,29.6633,-93.3933,0082,-2.08,11.82,12.0000,350.0000
1983-09-26 06:00:00 UTC,2445603.750000,29.6633,-93.3933,0082,-2.29,10.76,11.0000,348.0000
1983-09-26 06:30:00 UTC,2445603.770833,29.6633,-93.3933,0082,0.00,9.00,9.0000,0.0000
1983-09-26 07:00:00 UTC,2445603.791667,29.6633,-93.3933,0082,2.96,6.34,7.0000,25.0000
1983-09-26 07:30:00 UTC,2445603.812500,29.6633,-93.3933,0082,4.24,4.24,6.0000,45.0000
1983-09-26 08:00:00 UTC,2445603.833333,29.6633,-93.3933,0082,4.66,3.78,6.0000,51.0000
1983-09-26 08:30:00 UTC,2445603.854167,29.6633,-93.3933,0082,4.05,2.94,5.0000,54.0000
1983-09-26 09:00:00 UTC,2445603.875000,29.6633,-93.3933,0082,2.52,1.63,3.0000,57.0000
1983-09-26 09:30:00 UTC,2445603.895833,29.6633,-93.3933,0082,1.75,0.97,2.0000,61.0000
1983-09-26 10:00:00 UTC,2445603.916667,29.6633,-93.3933,0082,1.92,0.55,2.0000,74.0000
1983-09-26 10:30:00 UTC,2445603.937500,29.6633,-93.3933,0082,2.99,-0.21,3.0000,94.0000
1983-09-26 11:00:00 UTC,2445603.958333,29.6633,-93.3933,0082,5.80,-1.55,6.0000,105.0000
1983-09-26 11:30:00 UTC,2445603.979167,29.6633,-93.3933,0082,7.42,-3.00,8.0000,112.0000
1983-09-26 12:00:00 UTC,2445604.000000,29.6633,-93.3933,0082,9.53,-5.50,11.0000,120.0000
1983-09-26 12:30:00 UTC,2445604.020833,29.6633,-93.3933,0082,10.52,-7.64,13.0000,126.0000
1983-09-26 13:00:00 UTC,2445604.041667,29.6633,-93.3933,0082,8.92,-8.03,12.0000,132.0000
1983-09-26 13:30:00 UTC,2445604.062500,29.6633,-93.3933,0082,7.64,-7.91,11.0000,136.0000
1983-09-26 14:00:00 UTC,2445604.083333,29.6633,-93.3933,0082,8.43,-7.07,11.0000,130.0000
1983-09-26 14:30:00 UTC,2445604.104167,29.6633,-93.3933,0082,10.60,-5.63,12.0000,118.0000
1983-09-26 15:00:00 UTC,2445604.125000,29.6633,-93.3933,0082,9.70,-2.42,10.0000,104.0000
1983-09-26 15:30:00 UTC,2445604.145833,29.6633,-93.3933,0082,9.99,0.35,10.0000,88.0000
1983-09-26 16:00:00 UTC,2445604.166667,29.6633,-93.3933,0082,10.52,3.22,11.0000,73.0000
1983-09-26 16:30:00 UTC,2445604.187500,29.6633,-93.3933,0082,11.78,5.49,13.0000,65.0000
1983-09-26 17:00:00 UTC,2445604.208333,29.6633,-93.3933,0082,12.12,7.00,14.0000,60.0000
1983-09-26 17:30:00 UTC,2445604.229167,29.6633,-93.3933,0082,9.33,7.55,12.0000,51.0000
1983-09-26 18:00:00 UTC,2445604.250000,29.6633,-93.3933,0082,7.22,8.30,11.0000,41.0000
1983-09-26 18:30:00 UTC,2445604.270833,29.6633,-93.3933,0082,5.59,8.29,10.0000,34.0000
1983-09-26 19:00:00 UTC,2445604.291667,29.6633,-93.3933,0082,4.85,8.75,10.0000,29.0000
1983-09-26 19:30:00 UTC,2445604.312500,29.6633,-93.3933,0082,4.54,8.91,10.0000,27.0000
1983-09-26 20:00:00 UTC,2445604.333333,29.6633,-93.3933,0082,3.80,8.16,9.0000,25.0000
1983-09-26 20:30:00 UTC,2445604.354167,29.6633,-93.3933,0082,2.87,7.47,8.0000,21.0000
1983-09-26 21:00:00 UTC,2445604.375000,29.6633,-93.3933,0082,2.72,5.35,6.0000,27.0000
1983-09-26 21:30:00 UTC,2445604.395833,29.6633,-93.3933,0082,4.46,4.01,6.0000,48.0000
1983-09-26 22:00:00 UTC,2445604.416667,29.6633,-93.3933,0082,4.66,3.78,6.0000,51.0000
1983-09-26 22:30:00 UTC,2445604.437500,29.6633,-93.3933,0082,4.11,5.66,7.0000,36.0000
1983-09-26 23:00:00 UTC,2445604.458333,29.6633,-93.3933,0082,4.70,6.47,8.0000,36.0000
1983-09-26 23:30:00 UTC,2445604.479167,29.6633,-93.3933,0082,6.22,5.03,8.0000,51.0000
1983-09-27 00:00:00 UTC,2445604.500000,29.6633,-93.3933,0082,9.40,3.42,10.0000,70.0000
1983-09-27 00:30:00 UTC,2445604.520833,29.6633,-93.3933,0082,11.85,1.88,12.0000,81.0000
1983-09-27 01:00:00 UTC,2445604.541667,29.6633,-93.3933,0082,12.00,-0.21,12.0000,91.0000
1983-09-27 01:30:00 UTC,2445604.562500,29.6633,-93.3933,0082,10.27,-3.94,11.0000,111.0000
1983-09-27 02:00:00 UTC,2445604.583333,29.6633,-93.3933,0082,8.49,-8.49,12.0000,135.0000
1983-09-27 02:30:00 UTC,2445604.604167,29.6633,-93.3933,0082,6.89,-11.02,13.0000,148.0000
1983-09-27 03:00:00 UTC,2445604.625000,29.6633,-93.3933,0082,6.50,-11.26,13.0000,150.0000
1983-09-27 03:30:00 UTC,2445604.645833,29.6633,-93.3933,0082,6.30,-11.37,13.0000,151.0000
1983-09-27 04:00:00 UTC,2445604.666667,29.6633,-93.3933,0082,4.50,-11.13,12.0000,158.0000
1983-09-27 04:30:00 UTC,2445604.687500,29.6633,-93.3933,0082,1.72,-8.83,9.0000,169.0000
1983-09-27 05:00:00 UTC,2445604.708333,29.6633,-93.3933,0082,0.97,-6.93,7.0000,172.0000
1983-09-27 05:30:00 UTC,2445604.729167,29.6633,-93.3933,0082,1.75,-5.74,6.0000,163.0000
1983-09-27 06:00:00 UTC,2445604.750000,29.6633,-93.3933,0082,3.08,-3.94,5.0000,142.0000
1983-09-27 06:30:00 UTC,2445604.770833,29.6633,-93.3933,0082,4.37,-2.42,5.0000,119.0000
1983-09-27 07:00:00 UTC,2445604.791667,29.6633,-93.3933,0082,6.73,-1.93,7.0000,106.0000
1983-09-27 07:30:00 UTC,2445604.812500,29.6633,-93.3933,0082,9.85,-1.74,10.0000,100.0000
1983-09-27 08:00:00 UTC,2445604.833333,29.6633,-93.3933,0082,11.78,-2.29,12.0000,101.0000
1983-09-27 08:30:00 UTC,2445604.854167,29.6633,-93.3933,0082,11.69,-2.70,12.0000,103.0000
1983-09-27 09:00:00 UTC,2445604.875000,29.6633,-93.3933,0082,11.59,-3.11,12.0000,105.0000
1983-09-27 09:30:00 UTC,2445604.895833,29.6633,-93.3933,0082,11.13,-4.50,12.0000,112.0000
1983-09-27 10:00:00 UTC,2445604.916667,29.6633,-93.3933,0082,9.83,-6.88,12.0000,125.0000
1983-09-27 10:30:00 UTC,2445604.937500,29.6633,-93.3933,0082,10.40,-9.37,14.0000,132.0000
1983-09-27 11:00:00 UTC,2445604.958333,29.6633,-93.3933,0082,10.91,-11.70,16.0000,137.0000
1983-09-27 11:30:00 UTC,2445604.979167,29.6633,-93.3933,0082,10.23,-13.58,17.0000,143.0000
1983-09-27 12:00:00 UTC,2445605.000000,29.6633,-93.3933,0082,8.24,-14.87,17.0000,151.0000
1983-09-27 12:30:00 UTC,2445605.020833,29.6633,-93.3933,0082,6.64,-15.65,17.0000,157.0000
1983-09-27 13:00:00 UTC,2445605.041667,29.6633,-93.3933,0082,4.69,-16.34,17.0000,164.0000
1983-09-27 13:30:00 UTC,2445605.062500,29.6633,-93.3933,0082,2.78,-15.76,16.0000,170.0000
1983-09-27 14:00:00 UTC,2445605.083333,29.6633,-93.3933,0082,2.09,-14.85,15.0000,172.0000
1983-09-27 14:30:00 UTC,2445605.104167,29.6633,-93.3933,0082,1.81,-12.87,13.0000,172.0000
1983-09-27 15:00:00 UTC,2445605.125000,29.6633,-93.3933,0082,1.05,-11.95,12.0000,175.0000
1983-09-27 15:30:00 UTC,2445605.145833,29.6633,-93.3933,0082,0.96,-10.96,11.0000,175.0000
1983-09-27 16:00:00 UTC,2445605.166667,29.6633,-93.3933,0082,2.08,-9.78,10.0000,168.0000
1983-09-27 16:30:00 UTC,2445605.187500,29.6633,-93.3933,0082,1.87,-8.80,9.0000,168.0000
1983-09-27 17:00:00 UTC,2445605.208333,29.6633,-93.3933,0082,-0.16,-9.00,9.0000,181.0000
1983-09-27 17:30:00 UTC,2445605.229167,29.6633,-93.3933,0082,-2.93,-8.51,9.0000,199.0000
1983-09-27 18:00:00 UTC,2445605.250000,29.6633,-93.3933,0082,-6.02,-6.69,9.0000,222.0000
1983-09-27 18:30:00 UTC,2445605.270833,29.6633,-93.3933,0082,-8.91,-4.54,10.0000,243.0000
1983-09-27 19:00:00 UTC,2445605.291667,29.6633,-93.3933,0082,-9.61,-2.76,10.0000,254.0000
1983-09-27 19:30:00 UTC,2445605.312500,29.6633,-93.3933,0082,-9.85,-1.74,10.0000,260.0000
1983-09-27 20:00:00 UTC,2445605.333333,29.6633,-93.3933,0082,-8.99,0.31,9.0000,272.0000
1983-09-27 20:30:00 UTC,2445605.354167,29.6633,-93.3933,0082,-9.66,2.59,10.0000,285.0000
1983-09-27 21:00:00 UTC,2445605.375000,29.6633,-93.3933,0082,-12.29,4.23,13.0000,289.0000
1983-09-27 21:30:00 UTC,2445605.395833,29.6633,-93.3933,0082,-14.94,5.73,16.0000,291.0000
1983-09-27 22:00:00 UTC,2445605.416667,29.6633,-93.3933,0082,-15.65,6.64,17.0000,293.0000
1983-09-27 22:30:00 UTC,2445605.437500,29.6633,-93.3933,0082,-14.26,7.26,16.0000,297.0000
1983-09-27 23:00:00 UTC,2445605.458333,29.6633,-93.3933,0082,-14.09,9.51,17.0000,304.0000
1983-09-27 23:30:00 UTC,2445605.479167,29.6633,-93.3933,0082,-14.18,11.08,18.0000,308.0000
1983-09-28 00:00:00 UTC,2445605.500000,29.6633,-93.3933,0082,-15.26,9.54,18.0000,302.0000
1983-09-28 00:30:00 UTC,2445605.520833,29.6633,-93.3933,0082,-16.57,7.03,18.0000,293.0000
1983-09-28 01:00:00 UTC,2445605.541667,29.6633,-93.3933,0082,-16.31,7.61,18.0000,295.0000
1983-09-28 01:30:00 UTC,2445605.562500,29.6633,-93.3933,0082,-13.42,8.71,16.0000,303.0000
1983-09-28 02:00:00 UTC,2445605.583333,29.6633,-93.3933,0082,-11.47,8.03,14.0000,305.0000
1983-09-28 02:30:00 UTC,2445605.604167,29.6633,-93.3933,0082,-9.21,3.91,10.0000,293.0000
1983-09-28 03:00:00 UTC,2445605.625000,29.6633,-93.3933,0082,-8.93,1.10,9.0000,277.0000
1983-09-28 03:30:00 UTC,2445605.645833,29.6633,-93.3933,0082,-9.88,1.56,10.0000,279.0000
1983-09-28 04:00:00 UTC,2445605.666667,29.6633,-93.3933,0082,-9.61,2.76,10.0000,286.0000
1983-09-28 04:30:00 UTC,2445605.687500,29.6633,-93.3933,0082,-9.40,3.42,10.0000,290.0000
1983-09-28 05:00:00 UTC,2445605.708333,29.6633,-93.3933,0082,-7.36,3.13,8.0000,293.0000
1983-09-28 05:30:00 UTC,2445605.729167,29.6633,-93.3933,0082,-5.52,4.31,7.0000,308.0000
1983-09-28 06:00:00 UTC,2445605.750000,29.6633,-93.3933,0082,-3.51,7.19,8.0000,334.0000
1983-09-28 06:30:00 UTC,2445605.770833,29.6633,-93.3933,0082,-0.47,8.99,9.0000,357.0000
1983-09-28 07:00:00 UTC,2445605.791667,29.6633,-93.3933,0082,1.53,10.89,11.0000,8.0000
1983-09-28 07:30:00 UTC,2445605.812500,29.6633,-93.3933,0082,2.25,9.74,10.0000,13.0000
1983-09-28 08:00:00 UTC,2445605.833333,29.6633,-93.3933,0082,1.93,6.73,7.0000,16.0000
1983-09-28 08:30:00 UTC,2445605.854167,29.6633,-93.3933,0082,1.46,4.78,5.0000,17.0000
1983-09-28 09:00:00 UTC,2445605.875000,29.6633,-93.3933,0082,1.63,2.52,3.0000,33.0000
1983-09-28 09:30:00 UTC,2445605.895833,29.6633,-93.3933,0082,1.46,-1.36,2.0000,133.0000
1983-09-28 10:00:00 UTC,2445605.916667,29.6633,-93.3933,0082,0.42,-3.98,4.0000,174.0000
1983-09-28 10:30:00 UTC,2445605.937500,29.6633,-93.3933,0082,-0.63,-5.97,6.0000,186.0000
1983-09-28 11:00:00 UTC,2445605.958333,29.6633,-93.3933,0082,-1.34,-6.87,7.0000,191.0000
1983-09-28 11:30:00 UTC,2445605.979167,29.6633,-93.3933,0082,-1.22,-6.89,7.0000,190.0000
1983-09-28 12:00:00 UTC,2445606.000000,29.6633,-93.3933,0082,0.00,-7.00,7.0000,180.0000
1983-09-28 12:30:00 UTC,2445606.020833,29.6633,-93.3933,0082,1.71,-4.70,5.0000,160.0000
1983-09-28 13:00:00 UTC,2445606.041667,29.6633,-93.3933,0082,3.81,-5.87,7.0000,147.0000
1983-09-28 13:30:00 UTC,2445606.062500,29.6633,-93.3933,0082,4.36,-7.87,9.0000,151.0000
1983-09-28 14:00:00 UTC,2445606.083333,29.6633,-93.3933,0082,3.75,-9.27,10.0000,158.0000
1983-09-28 14:30:00 UTC,2445606.104167,29.6633,-93.3933,0082,3.09,-9.51,10.0000,162.0000
1983-09-28 15:00:00 UTC,2445606.125000,29.6633,-93.3933,0082,3.40,-10.46,11.0000,162.0000
1983-09-28 15:30:00 UTC,2445606.145833,29.6633,-93.3933,0082,2.90,-11.64,12.0000,166.0000
1983-09-28 16:00:00 UTC,2445606.166667,29.6633,-93.3933,0082,2.08,-11.82,12.0000,170.0000
1983-09-28 16:30:00 UTC,2445606.187500,29.6633,-93.3933,0082,1.05,-11.95,12.0000,175.0000
1983-09-28 17:00:00 UTC,2445606.208333,29.6633,-93.3933,0082,-1.53,-10.89,11.0000,188.0000
1983-09-28 17:30:00 UTC,2445606.229167,29.6633,-93.3933,0082,-4.00,-6.93,8.0000,210.0000
1983-09-28 18:00:00 UTC,2445606.250000,29.6633,-93.3933,0082,-5.04,-4.86,7.0000,226.0000
1983-09-28 18:30:00 UTC,2445606.270833,29.6633,-93.3933,0082,-5.66,-4.11,7.0000,234.0000
1983-09-28 19:00:00 UTC,2445606.291667,29.6633,-93.3933,0082,-5.82,-1.45,6.0000,256.0000
1983-09-28 19:30:00 UTC,2445606.312500,29.6633,-93.3933,0082,-6.71,4.36,8.0000,303.0000
1983-09-28 20:00:00 UTC,2445606.333333,29.6633,-93.3933,0082,-7.05,9.71,12.0000,324.0000
1983-09-28 20:30:00 UTC,2445606.354167,29.6633,-93.3933,0082,-6.71,9.95,12.0000,326.0000
1983-09-28 21:00:00 UTC,2445606.375000,29.6633,-93.3933,0082,-5.46,5.85,8.0000,317.0000
1983-09-28 21:30:00 UTC,2445606.395833,29.6633,-93.3933,0082,-5.28,4.59,7.0000,311.0000
1983-09-28 22:00:00 UTC,2445606.416667,29.6633,-93.3933,0082,-4.73,3.69,6.0000,308.0000
1983-09-28 22:30:00 UTC,2445606.437500,29.6633,-93.3933,0082,-4.24,2.65,5.0000,302.0000
1983-09-28 23:00:00 UTC,2445606.458333,29.6633,-93.3933,0082,-3.35,2.18,4.0000,303.0000
1983-09-28 23:30:00 UTC,2445606.479167,29.6633,-93.3933,0082,-3.77,3.28,5.0000,311.0000
1983-09-29 00:00:00 UTC,2445606.500000,29.6633,-93.3933,0082,-4.01,4.46,6.0000,318.0000
1983-09-29 00:30:00 UTC,2445606.520833,29.6633,-93.3933,0082,-3.86,4.60,6.0000,320.0000
1983-09-29 01:00:00 UTC,2445606.541667,29.6633,-93.3933,0082,-3.60,3.47,5.0000,314.0000
1983-09-29 01:30:00 UTC,2445606.562500,29.6633,-93.3933,0082,-2.46,1.72,3.0000,305.0000
1983-09-29 02:00:00 UTC,2445606.583333,29.6633,-93.3933,0082,-1.92,0.55,2.0000,286.0000
1983-09-29 02:30:00 UTC,2445606.604167,29.6633,-93.3933,0082,-1.96,-0.38,2.0000,259.0000
1983-09-29 03:00:00 UTC,2445606.625000,29.6633,-93.3933,0082,-1.88,-0.68,2.0000,250.0000
1983-09-29 03:30:00 UTC,2445606.645833,29.6633,-93.3933,0082,-1.84,-0.78,2.0000,247.0000
1983-09-29 04:00:00 UTC,2445606.666667,29.6633,-93.3933,0082,-0.00,-0.00,0.0000,245.0000
1983-09-29 04:30:00 UTC,2445606.687500,29.6633,-93.3933,0082,0.00,0.00,0.0000,49.0000
1983-09-29 05:00:00 UTC,2445606.708333,29.6633,-93.3933,0082,0.36,0.93,1.0000,21.0000
1983-09-29 05:30:00 UTC,2445606.729167,29.6633,-93.3933,0082,1.69,3.63,4.0000,25.0000
1983-09-29 06:00:00 UTC,2445606.750000,29.6633,-93.3933,0082,3.61,4.79,6.0000,37.0000
1983-09-29 06:30:00 UTC,2445606.770833,29.6633,-93.3933,0082,5.59,4.21,7.0000,53.0000
1983-09-29 07:00:00 UTC,2445606.791667,29.6633,-93.3933,0082,5.87,3.81,7.0000,57.0000
1983-09-29 07:30:00 UTC,2445606.812500,29.6633,-93.3933,0082,5.28,4.59,7.0000,49.0000
1983-09-29 08:00:00 UTC,2445606.833333,29.6633,-93.3933,0082,6.58,6.14,9.0000,47.0000
1983-09-29 08:30:00 UTC,2445606.854167,29.6633,-93.3933,0082,7.77,6.29,10.0000,51.0000
1983-09-29 09:00:00 UTC,2445606.875000,29.6633,-93.3933,0082,7.28,5.29,9.0000,54.0000
1983-09-29 09:30:00 UTC,2445606.895833,29.6633,-93.3933,0082,5.66,4.11,7.0000,54.0000
1983-09-29 10:00:00 UTC,2445606.916667,29.6633,-93.3933,0082,3.99,3.01,5.0000,53.0000
1983-09-29 10:30:00 UTC,2445606.937500,29.6633,-93.3933,0082,3.11,2.52,4.0000,51.0000
1983-09-29 11:00:00 UTC,2445606.958333,29.6633,-93.3933,0082,2.08,2.16,3.0000,44.0000
1983-09-29 11:30:00 UTC,2445606.979167,29.6633,-93.3933,0082,0.60,0.80,1.0000,37.0000
1983-09-29 12:00:00 UTC,2445607.000000,29.6633,-93.3933,0082,0.68,0.73,1.0000,43.0000
1983-09-29 12:30:00 UTC,2445607.020833,29.6633,-93.3933,0082,1.60,1.20,2.0000,53.0000
1983-09-29 13:00:00 UTC,2445607.041667,29.6633,-93.3933,0082,3.32,2.24,4.0000,56.0000
1983-09-29 13:30:00 UTC,2445607.062500,29.6633,-93.3933,0082,5.03,3.27,6.0000,57.0000